• In Österreich
  • Länderverzeichnis
  • Für 7 Tage
  • Wassertemperatur
  • Satellitenkarten
  • Wetterkarte
  • News
  • Widgets
  • user-avatar
    Anmelden

    Stündliche Wetter Canberra

    Heute, 25 Februar, Sonntag

    Zeit Temperatur Niederschläge Wind Luftdruck Luftfeuchtigkeit
    00:00 +23°C° 0,9 mm 1 m/S 702 mmHg 83%
    01:00 +22°C° 0,9 mm 1 m/S 702 mmHg 87%
    02:00 +22°C° 2,3 mm 1 m/S 702 mmHg 89%
    03:00 +21°C° 2,3 mm 1 m/S 702 mmHg 92%
    04:00 +21°C° 0 mm 1 m/S 702 mmHg 94%
    05:00 +21°C° 3,1 mm 1 m/S 702 mmHg 93%
    06:00 +21°C° 3,1 mm 1 m/S 703 mmHg 93%
    07:00 +20°C° 3,1 mm 2 m/S 703 mmHg 92%
    08:00 +20°C° 1,6 mm 2 m/S 703 mmHg 92%
    09:00 +19°C° 1,6 mm 3 m/S 704 mmHg 92%
    10:00 +15°C° 0 mm 4 m/S 704 mmHg 91%
    11:00 +15°C° 1,7 mm 4 m/S 704 mmHg 90%
    12:00 +15°C° 1,7 mm 4 m/S 704 mmHg 89%
    13:00 +14°C° 1,7 mm 4 m/S 704 mmHg 88%
    14:00 +15°C° 0,2 mm 4 m/S 704 mmHg 86%
    15:00 +15°C° 0,2 mm 4 m/S 704 mmHg 84%
    16:00 +14°C° 0 mm 3 m/S 704 mmHg 81%
    17:00 +16°C° 0,4 mm 3 m/S 704 mmHg 84%
    18:00 +16°C° 0,4 mm 3 m/S 705 mmHg 87%
    19:00 +16°C° 0,4 mm 3 m/S 705 mmHg 90%
    20:00 +15°C° 0,9 mm 4 m/S 705 mmHg 91%
    21:00 +15°C° 0,9 mm 4 m/S 705 mmHg 92%
    22:00 +15°C° 0 mm 5 m/S 706 mmHg 93%
    23:00 +14°C° 0,9 mm 5 m/S 706 mmHg 93%

    Morgen, 26 Februar, Montag

    Zeit Temperatur Niederschläge Wind Luftdruck Luftfeuchtigkeit
    00:00 +14°C° 0,9 mm 5 m/S 706 mmHg 92%
    01:00 +14°C° 0,9 mm 5 m/S 706 mmHg 92%
    02:00 +14°C° 1,1 mm 5 m/S 706 mmHg 92%
    03:00 +13°C° 1,1 mm 5 m/S 707 mmHg 92%
    04:00 +13°C° 1,1 mm 4 m/S 707 mmHg 92%
    05:00 +13°C° 1,5 mm 4 m/S 707 mmHg 91%
    06:00 +13°C° 1,5 mm 4 m/S 707 mmHg 91%
    07:00 +13°C° 1,5 mm 4 m/S 708 mmHg 91%
    08:00 +13°C° 0,7 mm 4 m/S 708 mmHg 88%
    09:00 +14°C° 0,7 mm 4 m/S 708 mmHg 86%
    10:00 +14°C° 0,7 mm 4 m/S 709 mmHg 83%
    11:00 +15°C° 0,1 mm 4 m/S 709 mmHg 79%
    12:00 +17°C° 0,1 mm 4 m/S 709 mmHg 75%
    13:00 +18°C° 0,1 mm 4 m/S 709 mmHg 71%
    14:00 +18°C° 0 mm 4 m/S 709 mmHg 69%
    15:00 +19°C° 0 mm 4 m/S 709 mmHg 67%
    16:00 +19°C° 0 mm 4 m/S 709 mmHg 64%
    17:00 +18°C° 0 mm 4 m/S 709 mmHg 70%
    18:00 +17°C° 0 mm 3 m/S 709 mmHg 75%
    19:00 +14°C° 0 mm 3 m/S 709 mmHg 81%
    20:00 +14°C° 0 mm 3 m/S 710 mmHg 84%
    21:00 +13°C° 0 mm 3 m/S 710 mmHg 86%
    22:00 +14°C° 0 mm 2 m/S 711 mmHg 89%
    23:00 +13°C° 0 mm 2 m/S 710 mmHg 91%

    übermorgen, 27 Februar, Dienstag

    Zeit Temperatur Niederschläge Wind Luftdruck Luftfeuchtigkeit
    00:00 +13°C° 0 mm 2 m/S 710 mmHg 92%
    01:00 +12°C° 0 mm 2 m/S 710 mmHg 94%
    02:00 +12°C° 0 mm 2 m/S 710 mmHg 94%
    03:00 +12°C° 0 mm 2 m/S 710 mmHg 94%
    04:00 +12°C° 0 mm 2 m/S 710 mmHg 94%
    05:00 +12°C° 0 mm 2 m/S 710 mmHg 91%
    06:00 +13°C° 0 mm 2 m/S 711 mmHg 89%
    07:00 +13°C° 0 mm 2 m/S 711 mmHg 86%
    08:00 +16°C° 0 mm 2 m/S 711 mmHg 76%
    09:00 +18°C° 0 mm 2 m/S 712 mmHg 66%
    10:00 +20°C° 0 mm 2 m/S 712 mmHg 56%
    11:00 +23°C° 0 mm 2 m/S 712 mmHg 51%
    12:00 +24°C° 0 mm 2 m/S 711 mmHg 45%
    13:00 +26°C° 0 mm 2 m/S 711 mmHg 40%
    14:00 +26°C° 0 mm 2 m/S 711 mmHg 40%
    15:00 +26°C° 0 mm 2 m/S 710 mmHg 40%
    16:00 +26°C° 0 mm 2 m/S 710 mmHg 40%
    17:00 +24°C° 0 mm 2 m/S 710 mmHg 51%
    18:00 +21°C° 0 mm 2 m/S 710 mmHg 61%
    19:00 +18°C° 0 mm 2 m/S 709 mmHg 72%
    20:00 +17°C° 0 mm 2 m/S 710 mmHg 78%
    21:00 +16°C° 0 mm 1 m/S 710 mmHg 84%
    22:00 +15°C° 0 mm 1 m/S 710 mmHg 90%
    23:00 +14°C° 0 mm 1 m/S 710 mmHg 92%

    28 Februar, Mittwoch

    Zeit Temperatur Niederschläge Wind Luftdruck Luftfeuchtigkeit
    00:00 +14°C° 0 mm 1 m/S 709 mmHg 93%
    01:00 +13°C° 0 mm 1 m/S 709 mmHg 94%
    02:00 +13°C° 0 mm 1 m/S 709 mmHg 94%
    03:00 +13°C° 0 mm 1 m/S 709 mmHg 93%
    04:00 +13°C° 0 mm 1 m/S 709 mmHg 93%
    05:00 +13°C° 0 mm 1 m/S 709 mmHg 88%
    06:00 +14°C° 0 mm 1 m/S 709 mmHg 82%
    07:00 +15°C° 0 mm 1 m/S 709 mmHg 77%
    08:00 +19°C° 0 mm 1 m/S 709 mmHg 63%
    09:00 +21°C° 0 mm 2 m/S 709 mmHg 48%
    10:00 +26°C° 0 mm 2 m/S 709 mmHg 34%
    11:00 +27°C° 0 mm 3 m/S 709 mmHg 31%
    12:00 +29°C° 0 mm 3 m/S 708 mmHg 27%
    13:00 +30°C° 0 mm 4 m/S 708 mmHg 24%
    14:00 +30°C° 0 mm 4 m/S 707 mmHg 24%
    15:00 +30°C° 0 mm 4 m/S 707 mmHg 24%
    16:00 +30°C° 0 mm 4 m/S 706 mmHg 24%
    17:00 +28°C° 0 mm 4 m/S 706 mmHg 31%
    18:00 +26°C° 0 mm 3 m/S 705 mmHg 37%
    19:00 +24°C° 0 mm 2 m/S 705 mmHg 44%
    20:00 +23°C° 0 mm 2 m/S 705 mmHg 46%
    21:00 +21°C° 0 mm 2 m/S 705 mmHg 49%
    22:00 +20°C° 0 mm 2 m/S 705 mmHg 52%
    23:00 +20°C° 0 mm 2 m/S 705 mmHg 53%

    1 März, Donnerstag

    Zeit Temperatur Niederschläge Wind Luftdruck Luftfeuchtigkeit
    00:00 +19°C° 0 mm 2 m/S 705 mmHg 54%
    01:00 +19°C° 0 mm 2 m/S 705 mmHg 55%
    02:00 +18°C° 0 mm 2 m/S 705 mmHg 55%
    03:00 +18°C° 0 mm 2 m/S 705 mmHg 54%
    04:00 +18°C° 0 mm 1 m/S 705 mmHg 54%
    05:00 +18°C° 0 mm 1 m/S 705 mmHg 55%
    06:00 +18°C° 0 mm 1 m/S 706 mmHg 56%
    07:00 +17°C° 0 mm 2 m/S 706 mmHg 57%
    08:00 +20°C° 0 mm 2 m/S 707 mmHg 49%
    09:00 +24°C° 0 mm 2 m/S 708 mmHg 41%
    10:00 +27°C° 0 mm 2 m/S 708 mmHg 34%
    11:00 +29°C° 0 mm 2 m/S 708 mmHg 30%
    12:00 +30°C° 0 mm 2 m/S 708 mmHg 27%
    13:00 +32°C° 0 mm 2 m/S 708 mmHg 24%
    14:00 +31°C° 0 mm 2 m/S 707 mmHg 25%
    15:00 +31°C° 0 mm 2 m/S 707 mmHg 26%
    16:00 +30°C° 0 mm 3 m/S 707 mmHg 27%
    17:00 +27°C° 0 mm 3 m/S 707 mmHg 37%
    18:00 +24°C° 0 mm 3 m/S 707 mmHg 48%
    19:00 +20°C° 0 mm 3 m/S 707 mmHg 58%
    20:00 +19°C° 0 mm 2 m/S 708 mmHg 66%
    21:00 +18°C° 0 mm 2 m/S 708 mmHg 74%
    22:00 +16°C° 0 mm 2 m/S 709 mmHg 83%
    23:00 +16°C° 0 mm 2 m/S 709 mmHg 85%

    2 März, Freitag

    Zeit Temperatur Niederschläge Wind Luftdruck Luftfeuchtigkeit
    00:00 +15°C° 0 mm 2 m/S 709 mmHg 88%
    01:00 +15°C° 0 mm 2 m/S 709 mmHg 90%
    02:00 +15°C° 0 mm 2 m/S 709 mmHg 90%
    03:00 +14°C° 0 mm 2 m/S 708 mmHg 91%
    04:00 +14°C° 0 mm 2 m/S 708 mmHg 91%
    05:00 +14°C° 0 mm 2 m/S 709 mmHg 88%
    06:00 +15°C° 0 mm 2 m/S 709 mmHg 86%
    07:00 +15°C° 0 mm 2 m/S 710 mmHg 83%
    08:00 +17°C° 0 mm 2 m/S 710 mmHg 73%
    09:00 +20°C° 0 mm 2 m/S 710 mmHg 63%
    10:00 +22°C° 0 mm 3 m/S 710 mmHg 52%
    11:00 +24°C° 0 mm 3 m/S 710 mmHg 49%
    12:00 +25°C° 0 mm 3 m/S 709 mmHg 47%
    13:00 +26°C° 0 mm 3 m/S 709 mmHg 44%
    14:00 +26°C° 0 mm 3 m/S 709 mmHg 48%
    15:00 +25°C° 0 mm 3 m/S 708 mmHg 52%
    16:00 +23°C° 0 mm 4 m/S 708 mmHg 56%
    17:00 +21°C° 0 mm 3 m/S 708 mmHg 64%
    18:00 +20°C° 0 mm 3 m/S 708 mmHg 72%
    19:00 +18°C° 0 mm 3 m/S 708 mmHg 80%
    20:00 +18°C° 0 mm 3 m/S 709 mmHg 82%
    21:00 +17°C° 0 mm 3 m/S 709 mmHg 85%
    22:00 +17°C° 0 mm 3 m/S 709 mmHg 88%
    23:00 +16°C° 0 mm 3 m/S 709 mmHg 87%
    Mehr zeigen